Location: Colossi of Memnon
(25.7167°N, 32.6167°E)
Time: 04:42:55
(UTC+00:00)

Meteosat 1 Rocket2 - Pass Details

Date: 05 March 2021
Orbit: 485 x 2306 km, 28.3° (Epoch: 19 April)

Event Time Altitude Azimuth Distance (km) Brightness Sun altitude
Exits shadow 03:42:19 - 281° (WNW) 3,358 6.1 -6.8°
Reaches altitude 10° 03:43:09 10° 280° (W) 3,050 5.9 -6.6°
Maximum altitude 03:50:07 58° 203° (SSW) 952 3.9 -5.0°
Drops below altitude 10° 03:54:45 10° 124° (SE) 2,046 6.9 -4.0°
Sets 03:56:44 0° 120° (ESE) 2,812 7.8 -3.6°
